Location: Ballingbuur
(53.0000°N, 5.7667°E)
Time: 06:46:48
(UTC+00:00)

Cosmos 1812 - Pass Details

Date: 29 November 2020
Orbit: 517 x 520 km, 82.5° (Epoch: 24 January)

Event Time Altitude Azimuth Distance (km) Brightness Sun altitude
Exits shadow 05:42:36 17° 332° (NNW) 1,395 4.5 -14.6°
Maximum altitude 05:45:19 43° 266° (W) 740 3.0 -14.2°
Drops below altitude 10° 05:48:57 10° 194° (SSW) 1,749 5.4 -13.6°
Sets 05:51:08 0° 188° (S) 2,632 6.4 -13.3°
